Powrót do katalogu

DELTA 1 DEB

AktywnyPO
NORAD 37647·DEBRIS·🇺🇸 United States

Wystrzelony Mar 5, 1978 z Vandenberg Space Force Base

Loading…

Następne Przeloty (najbliższe 24 godziny)

TLE

ŚwieżeSource: Space-Track

Epoka: Sep 14, 2026, 08:35 UTC

1 37647U 78026JJ  26257.35807702  .00000395  00000-0  39818-3 0  9993
2 37647  98.7657 299.4329 0232804 108.4194 254.2416 13.71078301648750

Śledź DELTA 1 DEB w czasie rzeczywistym z AllMySat

Download on the App Store